Home > Weather > Vevay > Past weeks

Flag for USA Past Weather in Vevay, Indiana, USA — Yesterday and Last 2 Weeks

Now
74 °F

Mostly cloudy.


Feels Like: 70 °F
Forecast: 73 / 94 °F
Wind: No wind

Location: Cincinnati / Northern Kentucky International Airport

Current Time: Aug 27, 2016 at 6:19:28 AM

Latest Report: Aug 27, 2016 at 5:52 AM


Visibility: 8 mi

Pressure: 30.06 "Hg

Humidity: 97%

Dew Point: 73 °F

Location of VevayLocation

Past Weather in Vevay — Graph

°F

Vevay Temperature Yesterday

Maximum temperature yesterday: 92 °F (at 4:52 PM)
Minimum temperature yesterday: 71 °F (at 6:52 AM)
Average temperature yesterday: 81 °F

High & Low Weather Summary for the Past Weeks

 TemperatureHumidityPressure
High92 °F (Aug 26, 4:52 PM)100% (Aug 13, 11:52 PM)30.29 "Hg (Aug 13, 11:52 PM)
Low57 °F (Aug 22, 4:52 AM)44% (Aug 22, 2:52 PM)29.72 "Hg (Aug 20, 5:52 PM)
Average76 °F82%30.03 "Hg
* Reported Aug 12 4:52 AM — Aug 27 4:52 AM, Vevay, Weather by CustomWeather, © 2016

Note: Actual official high and low records may vary slightly from our data, if they occured in-between our weather recording intervals... More about our weather records

Advertising

Vevay Weather History for the Previous 24 Hours

Scroll right to see more
 ConditionsComfort  
Time TempWeatherWind HumidityBarometerVisibility
4:52 AM
Sat, Aug 27
74 °FMostly cloudy.No wind94%30.07 "Hg7 mi
3:52 AM75 °FMostly cloudy.No wind90%30.06 "Hg7 mi
2:52 AM72 °FOvercast.No wind97%30.08 "Hg10 mi
1:52 AM75 °FOvercast.No wind90%30.08 "Hg10 mi
12:52 AM76 °FHigh level clouds.No wind88%30.07 "Hg10 mi
11:52 PM
Fri, Aug 26
76 °FPassing clouds.3 mph85%30.08 "Hg10 mi
10:52 PM76 °FPassing clouds.5 mph91%30.09 "Hg10 mi
9:52 PM79 °FPassing clouds.3 mph72%30.10 "Hg10 mi
8:52 PM81 °FThunderstorms. Partly sunny.16 mph62%30.09 "Hg10 mi
7:52 PM84 °FThunderstorms. Partly sunny.10 mph72%30.07 "Hg9 mi
6:52 PM90 °FPartly sunny.No wind56%30.04 "Hg10 mi
5:52 PM91 °FPartly sunny.6 mph52%30.04 "Hg10 mi
4:52 PM92 °FBroken clouds.5 mph52%30.04 "Hg10 mi
3:52 PM89 °FBroken clouds.No wind57%30.05 "Hg10 mi
2:52 PM89 °FBroken clouds.3 mph59%30.08 "Hg10 mi
1:52 PM88 °FScattered clouds.No wind61%30.09 "Hg10 mi
12:52 PM87 °FScattered clouds.5 mph65%30.10 "Hg9 mi
11:52 AM87 °FScattered clouds.No wind65%30.12 "Hg10 mi
10:52 AM85 °FPassing clouds.5 mph70%30.12 "Hg9 mi
9:52 AM82 °FPassing clouds.No wind77%30.12 "Hg8 mi
8:52 AM78 °FPassing clouds.No wind84%30.12 "Hg7 mi
7:52 AM72 °FPassing clouds.No wind97%30.10 "Hg7 mi
6:52 AM71 °FFog.No wind100%30.09 "Hg6 mi
Weather by CustomWeather, © 2016

See weather overviewHow to use our weather pages